Home   Weather   Ashgabat   Past weeks

Flag for Turkmenistan Past Weather in Ashgabat, Turkmenistan — Yesterday and Last 2 Weeks

Now
73 °F

Clear.


Feels Like: 76 °F
Forecast: 68 / 95 °F
Wind: No wind

Location: Ashgabat

Current Time: Jun 28, 2017 at 3:26:44 am

Latest Report: Jun 28, 2017 at 3:00 am


Visibility: N/A

Pressure: 29.92 "Hg

Humidity: 29%

Dew Point: 39 °F

Location of AshgabatLocation

Past Weather in Ashgabat — Graph

°F

Ashgabat Temperature Yesterday

Maximum temperature yesterday: 95 °F (at 4:00 pm)
Minimum temperature yesterday: 75 °F (at 5:00 am)
Average temperature yesterday: 86 °F

High & Low Weather Summary for the Past Weeks

 TemperatureHumidityPressure
High106 °F (Jun 15, 5:00 pm)61% (Jun 15, 6:00 am)30.01 "Hg (Jun 15, 6:00 am)
Low72 °F (Jun 15, 6:00 am)15% (Jun 20, 5:00 pm)29.45 "Hg (Jun 21, 2:00 am)
Average87 °F34%29.76 "Hg
* Reported Jun 13 2:00 am — Jun 28 2:00 am, Ashgabat. Weather by CustomWeather, © 2017

Note: Actual official high and low records may vary slightly from our data, if they occured in-between our weather recording intervals... More about our weather records

Advertising

Ashgabat Weather History for the Previous 24 Hours

Scroll right to see more
 ConditionsComfort  
Time TempWeatherWind HumidityBarometerVisibility
2:00 am
Wed, Jun 28
75 °FClear.3 mph27%29.95 "HgN/A
1:00 am79 °FClear.6 mph21%29.95 "HgN/A
12:00 am81 °FClear.3 mph18%29.95 "HgN/A
11:00 pm
Tue, Jun 27
84 °FClear.No wind18%29.95 "HgN/A
10:00 pm86 °FPassing clouds.2 mph19%29.95 "HgN/A
9:00 pm88 °FPassing clouds.7 mph24%29.92 "HgN/A
8:00 pm91 °FPassing clouds.10 mph20%29.92 "HgN/A
7:00 pm93 °FPassing clouds.9 mph21%29.89 "HgN/A
6:00 pm95 °FScattered clouds.10 mph22%29.89 "HgN/A
5:00 pm95 °FPartly sunny.8 mph22%29.92 "HgN/A
4:00 pm95 °FPartly sunny.7 mph23%29.92 "HgN/A
3:00 pm93 °FPartly sunny.6 mph24%29.95 "HgN/A
2:00 pm93 °FScattered clouds.6 mph26%29.98 "HgN/A
1:00 pm91 °FPassing clouds.7 mph28%29.98 "Hg6 mi
12:00 pm90 °FPassing clouds.7 mph29%30.01 "HgN/A
11:00 am86 °FPassing clouds.8 mph31%30.01 "Hg6 mi
10:00 am84 °FClear.8 mph37%30.01 "HgN/A
9:00 am82 °FClear.13 mph42%30.01 "Hg6 mi
8:00 am81 °FClear.15 mph42%30.01 "HgN/A
7:00 am79 °FClear.9 mph42%30.01 "HgN/A
6:00 am79 °FClear.8 mph42%29.98 "HgN/A
5:00 am75 °FClear.2 mph44%29.98 "HgN/A
4:00 am81 °FClear.2 mph34%29.95 "HgN/A
3:00 am81 °FClear.7 mph34%29.95 "HgN/A
Weather by CustomWeather, © 2017

See weather overviewHow to use our weather pages